EW6640 Weather Reports


Display with metric or nautical units.
time (UTC)temp
F
wind
direction
speed
MPH
gust
MPH
rain 1hr
in
rain 24hr
in
rain mn
in
humidity
%
barometer
mb
20260903001643 86 191 0.0 2.0 0.00 0.00 0.00 75 1014.6
20260903000053 87 189 0.0 1.0 0.00 0.00 0.00 74 1014.5
20260902234542 87 238 0.0 2.0 0.00 0.00 0.00 73 1014.8
20260902233043 88 200 0.0 3.0 0.00 0.00 0.00 72 1014.6
20260902231545 89 355 0.0 5.0 0.00 0.00 0.00 71 1014.8
20260902230045 89 304 0.0 4.0 0.00 0.00 0.00 70 1014.9
20260902224602 90 246 0.0 4.0 0.00 0.00 0.00 70 1014.6
20260902223039 90 165 2.0 6.0 0.00 0.00 0.00 68 1014.8
20260902221539 91 191 1.0 4.0 0.00 0.00 0.00 67 1014.9
20260902220038 92 175 0.0 3.0 0.00 0.00 0.00 66 1014.8
20260902214627 92 190 0.0 6.0 0.00 0.00 0.00 65 1014.7
20260902213041 92 192 1.0 6.0 0.00 0.00 0.00 64 1014.9
20260902211552 93 165 0.0 6.0 0.00 0.00 0.00 64 1014.9
20260902210053 93 205 0.0 6.0 0.00 0.00 0.00 62 1014.9
20260902204605 94 106 0.0 6.0 0.00 0.00 0.00 60 1015.1
20260902203154 95 321 0.0 4.0 0.00 0.00 0.00 62 1015.2
20260902201601 94 217 0.0 6.0 0.00 0.00 0.00 62 1015.4
20260902200040 94 342 1.0 5.0 0.00 0.00 0.00 63 1015.6
20260902194546 94 193 1.0 6.0 0.00 0.00 0.00 62 1015.9
20260902193036 93 208 1.0 8.0 0.00 0.00 0.00 61 1015.9
20260902191536 94 249 2.0 5.0 0.00 0.00 0.00 58 1016.0
20260902190032 93 180 1.0 4.0 0.00 0.00 0.00 62 1016.0
20260902184530 93 150 2.0 5.0 0.00 0.00 0.00 60 1016.0
20260902183028 93 169 2.0 6.0 0.00 0.00 0.00 62 1016.2
20260902181611 92 171 2.0 6.0 0.00 0.00 0.00 63 1016.5
20260902180020 91 321 1.0 3.0 0.00 0.00 0.00 66 1016.7
20260902174523 92 336 2.0 6.0 0.00 0.00 0.00 63 1016.8
20260902173013 91 176 1.0 4.0 0.00 0.00 0.00 66 1016.8
20260902171551 90 172 1.0 6.0 0.00 0.00 0.00 66 1017.1
20260902170037 89 153 0.0 4.0 0.00 0.00 0.00 69 1017.1
20260902164541 89 175 2.0 5.0 0.00 0.00 0.00 69 1017.3
20260902163034 88 316 1.0 6.0 0.00 0.00 0.00 71 1017.4
20260902161532 87 165 1.0 4.0 0.00 0.00 0.00 73 1017.3
20260902160026 87 288 1.0 4.0 0.00 0.00 0.00 73 1017.2
20260902154526 86 192 0.0 3.0 0.00 0.00 0.00 75 1017.4
20260902153026 85 208 0.0 2.0 0.00 0.00 0.00 77 1017.4
20260902151517 84 278 1.0 4.0 0.00 0.00 0.00 76 1017.3
20260902150019 84 319 1.0 4.0 0.00 0.00 0.00 79 1017.3
20260902144508 83 252 0.0 3.0 0.00 0.00 0.00 80 1017.6
20260902143102 82 230 1.0 4.0 0.00 0.00 0.00 82 1017.6
20260902141601 81 300 0.0 2.0 0.00 0.00 0.00 84 1017.6
20260902140106 79 188 0.0 3.0 0.00 0.00 0.00 86 1017.5
20260902134555 78 11 0.0 3.0 0.00 0.00 0.00 87 1017.5
20260902133115 77 176 0.0 2.0 0.00 0.00 0.00 91 1017.5
20260902131536 75 319 0.0 3.0 0.00 0.00 0.00 93 1017.6
20260902130132 74 200 0.0 2.0 0.00 0.00 0.00 96 1017.5
20260902124514 73 194 0.0 0.0 0.00 0.00 0.00 98 1017.6
20260902123014 71 194 0.0 0.0 0.00 0.00 0.00 100 1017.7
20260902121513 71 194 0.0 0.0 0.00 0.00 0.00 100 1017.6
20260902120013 70 194 0.0 0.0 0.00 0.00 0.00 99 1017.5
20260902114510 70 194 0.0 0.0 0.00 0.00 0.00 99 1017.2
20260902113009 70 194 0.0 0.0 0.00 0.00 0.00 98 1017.0
20260902111508 70 194 0.0 0.0 0.00 0.00 0.00 98 1016.8
20260902110014 70 194 0.0 0.0 0.00 0.00 0.00 98 1016.7
20260902104506 70 194 0.0 0.0 0.00 0.00 0.00 98 1016.9
20260902103005 71 194 0.0 0.0 0.00 0.00 0.00 97 1016.8
20260902101505 71 194 0.0 0.0 0.00 0.00 0.00 97 1016.7
20260902100004 71 194 0.0 0.0 0.00 0.00 0.00 97 1017.0
20260902094502 71 194 0.0 0.0 0.00 0.00 0.00 97 1016.8
20260902093101 71 194 0.0 0.0 0.00 0.00 0.00 97 1016.6
20260902091607 72 194 0.0 0.0 0.00 0.00 0.00 96 1016.5
20260902090104 72 194 0.0 0.0 0.00 0.00 0.00 96 1016.6
20260902084605 72 194 0.0 0.0 0.00 0.00 0.00 96 1016.6
20260902083112 72 194 0.0 0.0 0.00 0.00 0.00 95 1016.5
20260902081553 73 194 0.0 0.0 0.00 0.00 0.00 94 1016.5
20260902080053 73 194 0.0 0.0 0.00 0.00 0.00 93 1016.4
20260902074548 74 194 0.0 0.0 0.00 0.00 0.00 92 1016.3
20260902073047 75 194 0.0 0.0 0.00 0.00 0.00 91 1016.2
20260902071544 75 194 0.0 0.0 0.00 0.00 0.00 90 1016.2
20260902070043 76 194 0.0 0.0 0.00 0.00 0.00 89 1016.2
20260902064543 77 194 0.0 0.0 0.00 0.00 0.00 88 1016.2
20260902063038 77 194 0.0 0.0 0.00 0.00 0.00 86 1016.2
20260902061544 78 194 0.0 1.0 0.00 0.00 0.00 86 1016.2
20260902060032 78 190 0.0 0.0 0.00 0.00 0.00 86 1016.4
20260902054536 78 210 0.0 2.0 0.00 0.00 0.00 85 1016.5
20260902053031 78 219 0.0 2.0 0.00 0.00 0.00 85 1016.4
20260902051528 79 205 0.0 1.0 0.00 0.00 0.00 84 1016.0
20260902050028 79 205 0.0 1.0 0.00 0.00 0.00 84 1016.1
20260902044528 79 205 0.0 1.0 0.00 0.00 0.00 84 1016.0
20260902043025 79 206 0.0 1.0 0.00 0.00 0.00 83 1016.4
20260902041517 79 209 0.0 1.0 0.00 0.00 0.00 83 1016.4
20260902040013 80 209 0.0 1.0 0.00 0.00 0.00 83 1016.4
20260902034513 80 208 0.0 1.0 0.00 0.00 0.00 83 1016.2
20260902033012 80 208 0.0 1.0 0.00 0.00 0.00 83 1016.1
20260902031518 81 208 0.0 2.0 0.00 0.00 0.00 83 1015.9
20260902030012 81 228 0.0 1.0 0.00 0.00 0.00 82 1016.1
20260902024509 81 207 0.0 2.0 0.00 0.00 0.00 82 1016.0
20260902023025 81 209 0.0 2.0 0.00 0.00 0.00 83 1015.9
20260902021507 81 209 0.0 0.0 0.00 0.00 0.00 83 1016.0
20260902020012 82 209 0.0 0.0 0.00 0.00 0.00 82 1015.9
20260902014513 82 209 0.0 0.0 0.00 0.00 0.00 81 1015.8
20260902013006 83 209 0.0 0.0 0.00 0.00 0.00 80 1015.9
20260902011506 83 209 0.0 1.0 0.00 0.00 0.00 80 1015.8
20260902010008 83 216 0.0 1.0 0.00 0.00 0.00 80 1015.5
20260902004505 84 216 0.0 1.0 0.00 0.00 0.00 79 1015.5
20260902003004 85 216 0.0 0.0 0.00 0.00 0.00 78 1015.5